www.pogodaiklimat.ru
ПОГОДА в Попраде

Архив погоды в Попраде (Словакия)

Время
(UTC), дата
13 10.07
14 10.07
15 10.07
16 10.07
17 10.07
18 10.07
20 10.07
21 10.07
22 10.07
23 10.07
00 11.07
01 11.07
02 11.07
03 11.07
04 11.07
05 11.07
06 11.07
07 11.07
08 11.07
09 11.07
10 11.07
11 11.07
12 11.07
13 11.07
14 11.07
15 11.07
16 11.07
17 11.07
18 11.07
19 11.07
20 11.07
21 11.07
22 11.07
23 11.07
00 12.07
01 12.07
02 12.07
03 12.07
04 12.07
05 12.07
06 12.07
07 12.07
08 12.07
09 12.07
10 12.07
11 12.07
12 12.07
13 12.07
14 12.07
15 12.07
16 12.07
17 12.07
18 12.07
19 12.07
20 12.07
21 12.07
22 12.07
23 12.07
00 13.07
01 13.07
02 13.07
03 13.07
04 13.07
05 13.07
06 13.07
07 13.07
08 13.07
09 13.07
10 13.07
11 13.07
12 13.07
13 13.07
14 13.07
15 13.07
16 13.07
17 13.07
18 13.07
19 13.07
20 13.07
21 13.07
22 13.07
23 13.07
00 14.07
01 14.07
02 14.07
03 14.07
04 14.07
05 14.07
06 14.07
07 14.07
08 14.07
09 14.07
10 14.07
11 14.07
12 14.07
13 14.07
14 14.07
15 14.07
16 14.07
17 14.07
18 14.07
19 14.07
20 14.07
21 14.07
22 14.07
23 14.07
00 15.07
01 15.07
02 15.07
03 15.07
04 15.07
05 15.07
06 15.07
07 15.07
08 15.07
09 15.07
10 15.07
11 15.07
12 15.07
13 15.07
14 15.07
15 15.07
16 15.07
17 15.07
18 15.07
19 15.07
20 15.07
21 15.07
22 15.07
23 15.07
00 16.07
01 16.07
02 16.07
03 16.07
04 16.07
05 16.07
06 16.07
07 16.07
08 16.07
09 16.07
10 16.07
11 16.07
12 16.07
13 16.07
14 16.07
15 16.07
16 16.07
17 16.07
18 16.07
19 16.07
20 16.07
21 16.07
22 16.07
23 16.07
00 17.07
01 17.07
02 17.07
03 17.07
06 17.07
07 17.07
08 17.07
09 17.07
10 17.07
11 17.07
12 17.07
Ветер
(напр.,м/с)
Видим. Явления Облачность Т
(С)
Тd
(С)
f
(%)
Тe
(С)
Тes
(С)
Комфортность P
(гПа)
Po
(гПа)
Тmin
(С)
Tmax
(С)
R
(мм)
R24
(мм)
S
(см)
ЮВ 3 30 км 6/4 1380 м
[Cb cap Ac cuf Ci ing]
+29.7 +16.9 46 +33 +39 душно 1015.1 939.5
Ю 3 30 км 6/4 1500 м
[Cb calv Ac cuf Ci ing]
+30.2 +17.7 47 +34 +39 очень душно 1014.4 939.0
ЮВ 4 30 км 4/3 1500 м
[Cb calv Ac cuf Ci ing]
+28.7 +18.2 53 +33 +36 очень душно 1014.6 938.9
ЮВ 3 30 км 4/3 1500 м
[Cb calv Ac trans Cs]
+27.7 +18.4 57 +33 +34 очень душно 1014.5 938.6
ЮВ 2 30 км 4/3 1500 м
[Cu med, cong Ac lent Ci fib]
+26.3 +19.0 64 +31 +32 душно 1014.9 938.6
нст 2 40 км 4/1 1500 м
[Cu med, cong Ac lent Ci fib]
+23.6 +19.3 77 +29 +29 душно 1015.6 938.6 +30.5
З 2 40 км 3/0
[Ci fib]
+20.2 +18.0 87 +24 +24 комфорт 1017.2 939.2
нст 2 40 км 1/0
[Ci fib]
+18.4 +17.1 92 +20 +20 1017.9 939.3
З 2 40 км 1/0
[Ci fib]
+19.7 +17.3 86 +23 +23 комфорт 1017.9 939.7
З 2 40 км ясно +19.3 +17.1 87 +22 +22 комфорт 1018.0 939.7
З 3 35 км ясно +18.9 +17.0 89 +20 +20 1017.7 939.3
2 30 км ясно +18.5 +16.8 90 +20 +20 1017.2 938.7
З 3 35 км 3/1 1500 м
[Cu med, cong Ci fib]
+18.1 +16.6 91 +18 +18 1017.2 938.6
нст 1 35 км 3/1 1500 м
[Cu med, cong Ci fib]
+17.0 +16.4 96 +18 +18 1017.4 938.5
1 20 км 1/1 1200 м
[Cu med, cong Ci ing]
+17.0 +16.0 94 +18 +19 1017.5 938.6
штиль 0 25 км 4/1 1500 м
[Cu med, cong Ac lent Ci ing]
+20.5 +17.7 84 +24 +26 комфорт 1016.8 938.9
нст 1 40 км 5/1 1500 м
[Cb cap Ci ing]
+23.1 +18.0 73 +29 +34 очень душно 1015.8 938.6 +16.2
1 40 км 6/1 1500 м
[Cu med, cong Ci ing]
+25.5 +18.4 65 +30 +38 душно 1015.1 938.6
ЮВ 3 40 км 6/1 1200 м
[Cu med, cong Ci ing]
+27.5 +19.1 60 +33 +41 очень душно 1014.6 938.6
ЮВ 3 40 км 6/3 1500 м
[Cb cap Ci fib]
+28.9 +20.1 59 +35 +43 очень душно 1013.8 938.3
ЮВ 4 40 км гроза без осадков 6/5 1380 м
[Cb cap Ac cuf Ci ing]
+28.4 +18.2 54 +33 +38 очень душно 1013.4 937.7
ЮВ 4 30 км гроза без осадков 9/5 1380 м
[Cb cap Ac cuf Ci ing]
+26.8 +18.1 59 +31 +35 душно 1013.6 937.5
З 4 30 км гроза без осадков 9/3 1380 м
[Cb cap Ac cuf Ci ing]
+25.9 +17.3 59 +30 +34 душно 1014.6 938.2
З 5 30 км в посл. час гроза {ливн. дождь} 9/3 1500 м
[Cu med, cong Ac cuf Ci ing]
+24.8 +18.0 66 +29 +32 душно 1014.6 937.9
СВ 3 30 км 9/4 1500 м
[Cu med, cong Ac cuf Ci ing]
+22.4 +17.1 72 +27 +30 душно 1015.7 938.3
З 7 20 км гроза, ливневой дождь 9/8 1500 м
[Cb cap Ac cuf Ci ing]
+22.3 +17.4 74 +27 +27 душно 1016.6 939.1
2 25 км в посл. час гроза {ливн. дождь} 8/4 1000 м
[Cb cap Ac cuf Ci ing]
+21.5 +18.7 84 +26 +27 душно 1016.0 938.4 0.5
2 30 км 8/3 400 м
[Cu med, cong Ac cuf Ci ing]
+23.0 +17.2 70 +28 +29 душно 1015.5 938.3
С 3 30 км {гроза, ливн. дождь} 8/3 1500 м
[Cb cap Ac cuf Ci ing]
+21.1 +19.2 89 +26 +26 душно 1015.7 938.1 +30.0
1 30 км 5/1 1500 м
[Cu med, cong Ac cuf Ci ing]
+19.7 +19.0 96 +24 +24 комфорт 1016.5 938.5
1 20 км 6/1 270 м
[St Ac cuf Ci ing]
+18.0 +17.4 96 +19 +19 1017.2 938.6
СЗ 3 15 км 4/1 270 м
[St Ac lent Ci sp]
+16.8 +16.0 95 +17 +17 1017.3 938.3
2 15 км 3/0
[Ac lent Ci sp]
+16.7 +15.7 94 +17 +17 1017.2 938.2
2 15 км 3/0
[Ac lent Ci fib]
+15.9 +14.4 91 +16 +16 1017.6 938.3
З 2 15 км 3/0
[Ac lent Ci fib]
+15.2 +13.6 90 +15 +15 1017.5 938.0
СЗ 2 2000 м туман на расстоянии 4/1 30 м
[St Ac lent Ci fib]
+14.4 +12.8 90 +14 +14 1017.4 937.7
СЗ 2 4000 м туман на расстоянии 3/1 30 м
[St Ac lent Ci fib]
+14.7 +13.7 94 +14 +14 1017.0 937.4
нст 2 4000 м туман на расстоянии 3/1 30 м
[St Ac lent Ci fib]
+13.7 +13.1 96 +13 +13 1017.7 937.8
ЮЗ 1 7000 м туман на расстоянии 3/1 120 м
[St Ac lent Ci fib]
+15.1 +14.3 95 +16 +16 1017.1 937.7
ЮЗ 1 30 км в посл. час туман 3/1 180 м
[St Ac lent Ci fib]
+17.9 +15.2 84 +19 +21 1016.3 937.7
нст 1 30 км 1/1 180 м
[St Ci fib]
+21.3 +15.6 70 +25 +30 комфорт 1015.3 937.6 +13.1 0.5
1 30 км 1/1 1000 м
[Cu hum Ci fib]
+24.0 +16.8 64 +28 +37 душно 1014.2 937.3
В 2 35 км 6/1 1500 м
[Cu hum Ac lent Ci sp]
+24.6 +16.9 62 +28 +36 душно 1013.9 937.2
В 2 40 км 5/1 1000 м
[Cu med, cong Ac lent Ci sp]
+26.0 +16.6 56 +30 +40 душно 1013.3 937.0
2 40 км слаб. ливневой дождь 6/4 1200 м
[Cu med, cong Ac lent Ci sp]
+27.2 +17.1 54 +31 +40 душно 1012.6 936.6
С 3 15 км гроза, ливневой дождь 8/6 600 м
[Cb cap Ac cuf Ci ing]
+22.3 +20.9 92 +29 +33 очень душно 1013.7 936.6 4
С 3 30 км в посл. час гроза {ливн. дождь} 6/5 1500 м
[Cb cap Ac cuf Ci ing]
+26.9 +20.0 66 +33 +39 очень душно 1011.6 935.8 0.2
2 40 км 6/5 1500 м
[Cb cap Ac cuf Ci ing]
+28.6 +19.3 57 +34 +40 очень душно 1010.4 935.0
2 40 км 5/4 1500 м
[Cu med, cong Ac lent Ci sp]
+29.5 +18.0 50 +34 +39 очень душно 1009.2 934.1
ЮВ 5 40 км 5/4 1500 м
[Cu med, cong Ac lent Ci sp]
+28.8 +19.7 58 +35 +37 очень душно 1009.2 934.0
Ю 4 35 км 4/1 1500 м
[Cu med, cong Ac lent Ci fib]
+28.3 +16.9 50 +32 +34 душно 1009.4 933.9
Ю 4 35 км 3/1 1500 м
[Cu med, cong Ac lent Ci ing]
+27.2 +17.7 56 +31 +32 душно 1009.2 933.5
нст 2 35 км 5/1 1500 м
[Cu med, cong Ac lent Ci ing]
+24.4 +18.4 69 +29 +29 душно 1009.3 933.0 +29.6
2 20 км слаб. ливневой дождь 9/5 1380 м
[Cb cap Ac cuf Ci ing]
+23.2 +18.5 75 +29 +29 душно 1009.4 932.8
ЮВ 5 10 км гроза, ливневой дождь 9/9 1380 м
[Cb cap]
+18.0 +17.0 94 +18 +18 1011.4 933.2 6
З 5 30 км зарница {гроза, ливн. дождь} 9/3 1500 м
[Cu med, cong Ac cuf Ci ing]
+18.8 +18.5 98 +20 +20 1010.4 932.6
З 4 35 км зарница 9/1 1500 м
[Cu med, cong Ac cuf Ci ing]
+18.9 +18.2 96 +20 +20 1009.8 932.0
З 1 40 км зарница 4/0
[Ci ing]
+18.8 +18.3 97 +21 +21 комфорт 1009.6 931.8
З 2 40 км зарница {гроза, ливн. дождь} 1/0
[Ci ing]
+18.4 +18.2 99 +20 +20 1009.7 931.8
1 40 км зарница 1/0
[Ac lent Ci fib]
+18.3 +17.8 97 +20 +20 1009.2 931.3
1 35 км зарница 4/3 2000 м
[Cu med, cong Ac cuf Ci ing]
+17.6 +17.4 99 +19 +19 1009.0 930.9
нст 1 30 км 1/1 1300 м
[Cu med, cong Ac cast Ci ing]
+17.3 +17.1 99 +18 +18 1009.3 931.1
2 30 км 1/1 1300 м
[Cu med, cong Ci fib]
+17.6 +17.6 100 +18 +19 1009.4 931.3
1 30 км 3/1 1200 м
[Cu med, cong Ci fib]
+20.3 +18.6 90 +25 +27 комфорт 1008.8 931.5
ЮЗ 3 30 км 3/3 1200 м
[Cu med, cong]
+26.1 +19.3 66 +31 +35 очень душно 1007.6 931.8 +16.5 11.2
З 3 30 км 4/1 1200 м
[Cu med, cong Ac lent]
+27.1 +19.2 62 +33 +37 очень душно 1007.5 932.0
З 5 30 км 5/1 1200 м
[Cu med, cong Ac lent]
+28.6 +18.4 54 +33 +37 очень душно 1007.3 932.1
нст 2 30 км 3/1 1200 м
[Cu med, cong Ac lent Ci fib]
+28.9 +17.1 49 +33 +45 очень душно 1007.5 932.3
ЮЗ 5 30 км 4/1 1500 м
[Cu med, cong Ac lent Ci fib]
+29.6 +17.1 47 +33 +40 душно 1007.2 932.2
ЮЗ 6 30 км 5/1 1500 м
[Cb calv Ac cuf Ci fib]
+30.7 +17.1 44 +34 +39 очень душно 1007.1 932.4
ЮЗ 5 30 км 6/3 1500 м
[Cu med, cong Ac cast Ci fib]
+30.8 +15.7 40 +33 +38 душно 1007.4 932.6
З 6 35 км гроза без осадков 6/3 1500 м
[Cb cap Ac cuf Ci ing]
+31.7 +16.1 39 +35 +37 очень душно 1007.0 932.5
З 6 35 км в посл. час гроза 6/3 1500 м
[Cb calv Ac cuf Ci ing]
+31.3 +16.5 41 +34 +37 душно 1007.0 932.4
нст 2 35 км {гроза} 6/4 1500 м
[Cb cap Ac cuf Ci ing]
+30.1 +15.4 41 +33 +36 душно 1007.4 932.5
С 4 35 км в посл. час ливневой дождь 6/4 1500 м
[Cb cap Ac cuf Ci ing]
+27.0 +20.4 67 +33 +34 очень душно 1008.9 933.3
СВ 5 35 км 6/4 600 м
[Cb cap Ac cuf Ci ing]
+23.5 +19.4 78 +29 +29 душно 1010.6 934.0
СВ 4 35 км гроза без осадков {ливн. дождь} 8/4 600 м
[Cb cap Ac cuf Ci ing]
+22.2 +19.4 84 +28 +28 душно 1011.5 934.5 +31.8
ЮВ 2 35 км в посл. час гроза 6/3 400 м
[Cu med, cong Ac lent Ci sp]
+21.1 +19.6 91 +26 +26 душно 1012.1 934.8
ЮВ 1 35 км зарница 5/4 1300 м
[Cb cap Ac cuf Ci ing]
+20.2 +19.2 94 +25 +25 комфорт 1012.8 935.2
нст 1 35 км {гроза} 4/3 1300 м
[Sc Ac lent Ci sp]
+19.0 +18.5 97 +22 +22 комфорт 1013.1 935.1
1 35 км 4/3 1300 м
[Sc Ac lent Ci sp]
+18.7 +18.0 96 +21 +21 комфорт 1012.7 934.7
2 30 км 3/1 1300 м
[Sc Ci fib]
+17.8 +17.6 99 +18 +18 1012.9 934.6
З 3 25 км {гроза} 4/1 1300 м
[Sc Ac lent]
+18.5 +18.0 97 +20 +20 1012.6 934.5
СВ 1 15 км гроза без осадков 5/4 1300 м
[Cb cap Ac cuf Ci ing]
+17.7 +17.4 98 +19 +19 1012.3 934.0
З 3 15 км гроза, ливневой дождь 9/8 1300 м
[Cb cap Ac cuf Ci ing]
+18.0 +17.8 99 +18 +18 1012.1 933.9 1
З 7 7000 м гроза, ливневой дождь 9/9 1300 м
[Cb cap Ac cuf Ci ing]
+18.0 +17.7 98 +17 +17 1013.5 935.2 10
1 20 км гроза, ливневой дождь 9/9 1500 м
[Cb cap Ac cuf Ci ing]
+17.8 +17.0 95 +19 +19 1012.4 934.1 0.2
В 2 20 км гроза, ливневой дождь 9/6 300 м
[Cb cap Ac cuf Ci ing]
+17.8 +17.5 98 +18 +19 1013.8 935.4 1
нст 2 15 км гроза, ливневой дождь 9/9 90 м
[Cb cap Ac cuf Ci ing]
+17.5 +17.3 99 +18 +18 1012.8 934.4 +17.1 0.7 13.7
1 30 км в посл. час гроза {ливн. дождь} 6/4 150 м
[Cu med, cong Ac cuf Ci ing]
+19.8 +18.3 91 +24 +29 комфорт 1012.1 934.4
1 50 км 1/1 600 м
[Cu med, cong Ac cuf Ci ing]
+22.5 +18.5 78 +28 +41 душно 1011.4 934.4
нст 1 60 км {гроза, ливн. дождь} 1/1 900 м
[Cu med, cong Ac cuf Ci ing]
+24.2 +18.8 72 +29 +45 душно 1010.8 934.3
ЮВ 2 60 км 3/3 900 м
[Cb cap]
+26.7 +20.3 68 +33 +45 очень душно 1009.7 934.0
ЮВ 4 30 км в посл. час гроза 9/9 900 м
[Cb cap Ac cuf Ci ing]
+25.6 +20.8 75 +32 +33 очень душно 1009.9 933.9
С 4 30 км гроза, ливневой дождь 9/9 900 м
[Cb cap Ac cuf Ci ing]
+22.8 +21.4 92 +30 +31 очень душно 1011.0 934.3 0.8
СВ 3 10 км гроза, ливневой дождь 9/9 600 м
[Cb cap Ac cuf Ci ing]
+19.1 +17.9 93 +21 +22 комфорт 1013.1 935.1 5
Ю 3 12 км гроза, ливневой дождь 9/9 360 м
[Cb cap Ac cuf Ci ing]
+21.7 +18.1 80 +26 +27 душно 1012.2 935.0 2
С 3 12 км гроза без осадков 9/4 600 м
[Cb cap Ac cuf Ci ing]
+22.7 +19.7 83 +29 +31 очень душно 1012.0 935.1 0.1
В 3 20 км в посл. час гроза 8/3 600 м
[Cu med, cong Ac cuf Ci ing]
+23.2 +18.3 74 +29 +30 душно 1011.9 935.1
В 3 20 км в посл. час гроза 5/3 600 м
[Cb cap Ac cuf Ci ing]
+21.9 +17.9 78 +27 +27 душно 1012.8 935.6
Ю 2 30 км {гроза, ливн. дождь} 4/1 600 м
[Sc diur, vesp Ac cuf Ci ing]
+20.3 +18.2 88 +24 +24 комфорт 1013.1 935.4 +27.2
1 30 км 3/1 1500 м
[Sc diur, vesp Ac cuf Ci ing]
+18.7 +17.9 95 +21 +21 комфорт 1013.7 935.6
СЗ 2 30 км 3/1 400 м
[Sc Ac lent Ci sp]
+17.7 +17.0 96 +18 +18 1014.1 935.7
ЮЗ 1 30 км 3/0
[Ac lent Ci sp]
+17.3 +17.1 99 +18 +18 1014.4 935.8
З 1 30 км 1/0
[Ci fib]
+16.4 +16.2 99 +17 +17 1014.8 935.9
З 1 30 км 1/0
[Ci fib]
+15.8 +15.5 98 +16 +16 1015.3 936.2
нст 1 15 км 3/1 60 м
[St Ac lent Ci fib]
+15.3 +15.1 99 +16 +16 1015.5 936.3
1 1100 м туман на расстоянии 3/1 30 м
[St Ac lent Ci fib]
+14.5 +14.5 100 +15 +15 1015.9 936.4
1 100 м туман, небо видно 6/5 30 м
[St Ac lent Ci fib]
+16.0 +16.0 100 +17 +17 1015.6 936.6
З 2 300 м туман, небо видно 9/9 30 м
[St]
+16.2 +16.2 100 +16 +16 1015.4 936.4
2 300 м туман, небо видно 9/9 60 м
[St]
+17.0 +17.0 100 +17 +17 1015.4 936.7
С 2 5000 м в посл. час туман 9/9 120 м
[St]
+17.6 +17.6 100 +18 +18 1015.6 937.0
нст 1 12 км {туман} 9/8 120 м
[Sc Ac lent]
+18.8 +18.0 95 +21 +22 комфорт 1015.5 937.3 +14.3 7.0
1 20 км 8/3 120 м
[St Ac As Ci fib]
+19.8 +18.3 91 +24 +28 комфорт 1015.2 937.3
2 30 км 8/1 480 м
[Cu med, cong Ac trans Ci fib]
+21.3 +18.7 85 +26 +32 душно 1015.0 937.5
нст 1 30 км 6/1 800 м
[Cu med, cong Ac trans Ci fib]
+23.9 +18.8 73 +29 +40 душно 1014.0 937.2
2 40 км 5/1 1080 м
[Cu med, cong Ac trans Ci fib]
+25.7 +18.4 64 +30 +42 душно 1013.4 937.1
1 40 км 5/1 1300 м
[Cu med, cong Ac lent Ci fib]
+27.1 +15.5 49 +30 +44 душно 1012.9 936.8
СВ 2 40 км 6/1 1500 м
[Cu med, cong Ac lent Ci fib]
+28.3 +14.6 43 +31 +41 душно 1012.1 936.4
2 40 км 6/3 1500 м
[Cu med, cong Ac lent Ci fib]
+28.0 +16.0 48 +31 +38 душно 1012.2 936.4
1 40 км 6/5 1500 м
[Cu med, cong Ci fib]
+26.7 +18.3 60 +31 +37 душно 1012.3 936.3
нст 1 40 км 4/3 1500 м
[Cu med, cong Ac cuf]
+28.6 +15.9 46 +32 +36 душно 1011.5 935.9
1 40 км 1/1 1500 м
[Cu med, cong Ac cuf]
+27.1 +18.4 59 +32 +35 очень душно 1011.3 935.5
1 40 км 1/1 1500 м
[Cu med, cong Ac cuf]
+28.2 +19.4 59 +34 +35 очень душно 1011.2 935.7
нст 2 40 км 4/4 1500 м
[Cu med, cong Ac cuf]
+24.8 +18.5 68 +29 +29 душно 1012.4 935.9 +29.0
СВ 3 40 км 3/3 1380 м
[Cu med, cong Ac cuf]
+22.9 +19.1 79 +29 +29 очень душно 1013.4 936.4
СВ 1 40 км 1/1 1380 м
[Cu med, cong Ac cuf]
+21.9 +18.1 79 +27 +27 душно 1013.9 936.6
З 2 40 км 1/1 1500 м
[Sc diur, vesp]
+19.5 +18.0 91 +22 +22 комфорт 1014.6 936.6
2 20 км ясно +18.5 +17.5 94 +20 +20 1014.9 936.6
1 20 км ясно +17.6 +17.0 96 +19 +19 1015.0 936.5
нст 1 20 км ясно +17.3 +17.0 98 +18 +18 1014.9 936.3
З 3 20 км 1/0
[Ac trans]
+17.5 +16.7 95 +17 +17 1014.3 935.8
З 1 20 км 1/0
[Ac lent]
+17.4 +16.4 94 +18 +18 1014.1 935.6
нст 1 30 км 3/0
[Ac lent]
+16.5 +16.2 98 +17 +17 1014.5 935.7
2 30 км 3/1 1200 м
[Cb cap Ac lent]
+17.8 +17.0 95 +18 +19 1014.4 936.0
1 30 км 5/3 1200 м
[Cb calv Ac trans]
+20.8 +18.6 87 +26 +28 душно 1013.4 935.9
штиль 0 30 км 5/1 1200 м
[Cb calv Ac cast]
+22.0 +19.2 84 +27 +32 душно 1013.0 935.8 +16.3
1 30 км 4/3 1200 м
[Cb cap Ac cuf Ci ing]
+25.0 +19.2 70 +30 +37 душно 1011.7 935.4
В 2 30 км 4/3 1500 м
[Cu med, cong Ac cuf]
+27.0 +19.6 64 +33 +40 очень душно 1011.2 935.4
СВ 2 35 км 5/4 1500 м
[Cu med, cong Ac cast]
+28.2 +19.7 60 +34 +42 очень душно 1010.7 935.2
2 35 км 6/5 1500 м
[Cu med, cong Ac cuf]
+27.5 +19.1 60 +33 +40 очень душно 1010.7 935.0
ЮВ 4 15 км гроза, ливневой дождь 9/6 480 м
[Cb cap Ac cuf]
+24.9 +20.4 76 +31 +33 очень душно 1011.8 935.5 0.1
З 1 30 км в посл. час гроза {ливн. дождь} 9/5 800 м
[Cb cap Ac cuf Ci ing]
+26.6 +20.0 67 +33 +38 очень душно 1011.4 935.5 0.1
З 3 15 км гроза, ливневой дождь 9/5 600 м
[Cb cap Ac cuf Ci ing]
+21.3 +19.4 89 +26 +29 душно 1013.3 935.9 4
ЮЗ 3 25 км в посл. час гроза {ливн. дождь} 9/1 1500 м
[Cu med, cong Ac cuf Ci ing]
+22.9 +19.9 83 +30 +34 очень душно 1012.7 935.8
нст 2 30 км {гроза, ливн. дождь} 5/1 2000 м
[Cu med, cong Ac cuf Ci fib]
+26.5 +19.6 66 +32 +36 очень душно 1011.0 935.1
1 30 км 6/1 2000 м
[Cu med, cong Ac cuf Ci fib]
+27.0 +18.3 59 +32 +34 очень душно 1011.0 935.2
2 30 км 3/1 2000 м
[Sc diur, vesp Ac cuf Ci fib]
+25.4 +21.3 78 +32 +33 очень душно 1011.5 935.4
Ю 2 30 км {гроза, ливн. дождь} 3/1 2000 м
[Sc diur, vesp Ac cuf Ci fib]
+23.7 +21.0 85 +30 +30 очень душно 1012.0 935.4 +29.3
Ю 2 30 км 1/1 2000 м
[Sc diur, vesp Ac lent Ci fib]
+21.6 +19.7 89 +27 +27 душно 1013.2 935.9
Ю 1 20 км 1/1 2000 м
[Sc Ac lent Ci fib]
+19.8 +18.8 94 +24 +24 комфорт 1014.1 936.3
нст 2 20 км 1/0
[Ci fib]
+18.7 +17.7 94 +20 +20 1014.8 936.6
З 3 20 км 1/0
[Ci fib]
+18.6 +17.6 94 +20 +20 1015.3 937.0
СЗ 2 20 км 5/1 2000 м
[Sc Ac lent Ci fib]
+18.2 +17.6 96 +19 +19 1015.5 937.1
З 2 20 км 6/4 2000 м
[Sc Ac lent]
+18.4 +17.4 94 +20 +20 1015.8 937.4
З 2 20 км зарница 3/1 2000 м
[Sc Ac lent Ci fib]
+17.5 +16.8 96 +18 +18 1015.8 937.2
ЮЗ 4 15 км гроза, ливневой дождь 9/9 700 м
[Cb cap]
+18.4 +17.2 93 +19 +19 1017.0 938.5
ЮВ 2 20 км гроза, ливневой дождь 9/3 360 м
[Cb cap Ac As]
+15.8 +15.5 98 +16 +16 1017.7 938.4 7
нст 1 20 км в посл. час ливневой дождь {гроза} 6/4 210 м
[Cu med, cong Ac cuf Ci ing]
+18.8 +17.8 94 +21 +24 комфорт 1018.1 939.7 +15.8 10.7
штиль 0 25 км гроза без осадков 8/5 210 м
[Cb cap Ac cuf Ci ing]
+19.0 +17.0 88 +20 +24 1018.2 939.8
штиль 1 30 км гроза, ливневой дождь 8/5 210 м
[Cb cap Ac cuf Ci ing]
+21.2 +16.8 76 +25 +30 комфорт 1018.1 940.2
С 3 15 км гроза без осадков 8/6 210 м
[Cb cap Ac cuf Ci ing]
+22.0 +16.5 71 +26 +30 душно 1018.2 940.5
2 35 км в посл. час гроза 6/4 180 м
[Cb cap Ac cuf Ci ing]
+23.8 +16.8 65 +27 +36 жарко 1017.3 940.1
С 3 40 км 6/4 180 м
[Cu med, cong Ac cuf Ci ing]
+24.2 +15.2 57 +27 +34 жарко 1017.1 940.0
СВ 3 30 км {гроза} 5/4 180 м
[Cu med, cong Ac cuf Ci ing]
+24.9 +15.5 56 +28 +35 жарко 1016.5 939.6
Местоположение метеостанции Попрад (Словакия): широта 49.07 долгота 20.25 высота над уровнем моря 696 м.
В архиве по умолчанию представлена погода в Попраде за последнюю неделю. Архивные данные за месяц целиком и за предыдущие месяцы, начиная с января 2011 года, Вы можете получить, выбрав интересующий диапазон дат из раскрывающегося списка и нажав кнопку "Найти!".
*Определитесь, кто Вы:
Внимание! Время в таблицах - всемирное. Для получения местного времени необходимо прибавить поправку, которая равна 1 ч.
Некоторые строки с данными для отдельных станций могут быть выделены курсивом. Это означает, что фактические данные отсутствуют по различным причинам, а приведенные значения являются расчетными модельными данными для данного пункта наблюдений.
Смотрите также архив погоды в соседних городах и на ближайших метеорологических станциях:
Партнеры нашего сайта:      
Пояснения к столбцам:
  • Ветер - указаны скорость ветра в м/с - средняя за 10 мин, порывы в срок и между сроками (в фигурных скобках) и направление, откуда дует ветер: С - северный,
  • СВ - северо-восточный, В - восточный, ЮВ - юго-восточный, Ю - южный, ЮЗ - юго-западный, З - западный, СЗ - северо-западный.
  • Видимость - горизонтальная дальность видимости в метрах или километрах. При видимости от 1 до 10 км при отсутствии осадков обычно наблюдается дымка, при ухудшении видимости до 1 км и менее - туман. В сухую погоду видимость может ухудшаться дымом, пылью или мглою.
  • Явления - указаны атмосферные явления, наблюдавшиеся в срок или в последний час перед сроком; фигурными скобками обозначены явления, наблюдавшиеся между сроками (за 1-3 часа до срока); квадратными скобками обозначены град или гололедные отложения с указанием их диаметра в мм.
  • Облачность - указаны через наклонную черту общая и нижняя облачность в баллах и высота нижней границы облаков в метрах; квадратными скобками обозначены формы облаков: Ci - перистые, Cs - перисто-слоистые, Cc - перисто-кучевые, Ac - высококучевые, As - высокослоистые, Sc - слоисто-кучевые, Ns - слоисто-дождевые, Cu - кучевые, Cb - кучево-дождевые. Подробнее классификацию облаков см. в Атласе облаков (PDF).
  • T - Температура воздуха - температура, измеренная на высоте 2 м над землей.
  • Td - Температура точки росы - температура, при понижении до которой содержащийся в воздухе водяной пар достигнет насыщения.
  • f - Относительная влажность воздуха - влажноcть воздуха, измеренная на высоте 2 м над землей.
  • Te - Эффективная температура - температура, которую ощущает одетый по сезону человек в тени. Характеристика душности погоды. При расчете учитывается влияние влажности воздуха и скорости ветра на теплоощущения человека.
  • Tes - Эффективная температура на солнце - температура, которую ощущает человек, с поправкой на солнечный нагрев. Характеристика знойности погоды. Зависит от высоты солнца над горизонтом, облачности и скорости ветра. Ночью, в пасмурную погоду, а также при ветре 12 м/с и более поправка равна нулю.
  • P - Атмосферное давление - приведенное к уровню моря атмосферное давление.
  • Po - Атмосферное давление - измеренное на уровне метеостанции атмосферное давление.
  • Tmin - Минимальная температура - минимум температуры воздуха на высоте 2 м над землей.
  • Tmax - Максимальная температура - максимум температуры воздуха на высоте 2 м над землей.
  • R - Количество осадков - Количество выпавших осадков за период времени, мм. При наведении курсора мыши на число - период времени, за который выпало указанное количество осадков.
  • R24 - Количество осадков - Количество выпавших осадков за 24 часа, мм.
  • S - Снежный покров - Высота снежного покрова, см. При наведении курсора мыши на число - состояние снежного покрова и степень покрытия местности в баллах.